"Time","Value","Approval","myLocation"
"2023-05-06 00:00",86.2762475007892,"Approved","OW413"
"2023-05-06 01:00",86.2782411869936,"Approved","OW413"
"2023-05-06 02:00",86.2732348731979,"Approved","OW413"
"2023-05-06 03:00",86.2752285594023,"Approved","OW413"
"2023-05-06 04:00",86.2792222456066,"Approved","OW413"
"2023-05-06 05:00",86.271215931811,"Approved","OW413"
"2023-05-06 06:00",86.2712096180154,"Approved","OW413"
"2023-05-06 07:00",86.2712033042197,"Approved","OW413"
"2023-05-06 08:00",86.2691969904241,"Approved","OW413"
"2023-05-06 09:00",86.2691906766284,"Approved","OW413"
"2023-05-06 10:00",86.2681843628328,"Approved","OW413"
"2023-05-06 11:00",86.2641780490372,"Approved","OW413"
"2023-05-06 12:00",86.2631717352415,"Approved","OW413"
"2023-05-06 13:00",86.2611654214459,"Approved","OW413"
"2023-05-06 14:00",86.2631591076502,"Approved","OW413"
"2023-05-06 15:00",86.2651527938546,"Approved","OW413"
"2023-05-06 16:00",86.2661464800589,"Approved","OW413"
"2023-05-06 17:00",86.2671401662633,"Approved","OW413"
"2023-05-06 18:00",86.2691338524676,"Approved","OW413"
"2023-05-06 19:00",86.268127538672,"Approved","OW413"
"2023-05-06 20:00",86.2661212248764,"Approved","OW413"
"2023-05-06 21:00",86.2631149110807,"Approved","OW413"
"2023-05-06 22:00",86.2651085972851,"Approved","OW413"
"2023-05-06 23:00",86.2651022834894,"Approved","OW413"
"2023-05-07 00:00",86.2640959696938,"Approved","OW413"
"2023-05-07 01:00",86.2630896558981,"Approved","OW413"
"2023-05-07 02:00",86.2650833421025,"Approved","OW413"
"2023-05-07 03:00",86.2660770283069,"Approved","OW413"
"2023-05-07 04:00",86.2700707145112,"Approved","OW413"
"2023-05-07 05:00",86.2690644007156,"Approved","OW413"
"2023-05-07 06:00",86.2700580869199,"Approved","OW413"
"2023-05-07 07:00",86.2710517731243,"Approved","OW413"
"2023-05-07 08:00",86.2690454593286,"Approved","OW413"
"2023-05-07 09:00",86.266039145533,"Approved","OW413"
"2023-05-07 10:00",86.2650328317373,"Approved","OW413"
"2023-05-07 11:00",86.2640265179417,"Approved","OW413"
"2023-05-07 12:00",86.2640202041461,"Approved","OW413"
"2023-05-07 13:00",86.2630138903504,"Approved","OW413"
"2023-05-07 14:00",86.2650075765548,"Approved","OW413"
"2023-05-07 15:00",86.2650012627591,"Approved","OW413"
"2023-05-07 16:00",86.2649949489635,"Approved","OW413"
"2023-05-07 17:00",86.2629886351678,"Approved","OW413"
"2023-05-07 18:00",86.2619823213722,"Approved","OW413"
"2023-05-07 19:00",86.2659760075766,"Approved","OW413"
"2023-05-07 20:00",86.2659696937809,"Approved","OW413"
"2023-05-07 21:00",86.2679633799853,"Approved","OW413"
"2023-05-07 22:00",86.2669570661896,"Approved","OW413"
"2023-05-07 23:00",86.263950752394,"Approved","OW413"
"2023-05-08 00:00",86.2599444385983,"Approved","OW413"
"2023-05-08 01:00",86.2579381248027,"Approved","OW413"
"2023-05-08 02:00",86.2549318110071,"Approved","OW413"
"2023-05-08 03:00",86.2529254972114,"Approved","OW413"
"2023-05-08 04:00",86.2579191834158,"Approved","OW413"
"2023-05-08 05:00",86.2589128696201,"Approved","OW413"
"2023-05-08 06:00",86.2589065558245,"Approved","OW413"
"2023-05-08 07:00",86.2599002420288,"Approved","OW413"
"2023-05-08 08:00",86.2578939282332,"Approved","OW413"
"2023-05-08 09:00",86.2558876144375,"Approved","OW413"
"2023-05-08 10:00",86.2558813006419,"Approved","OW413"
"2023-05-08 11:00",86.2568749868463,"Approved","OW413"
"2023-05-08 12:00",86.2558686730506,"Approved","OW413"
"2023-05-08 13:00",86.255862359255,"Approved","OW413"
"2023-05-08 14:00",86.2578560454593,"Approved","OW413"
"2023-05-08 15:00",86.2598497316637,"Approved","OW413"
"2023-05-08 16:00",86.258843417868,"Approved","OW413"
"2023-05-08 17:00",86.2588371040724,"Approved","OW413"
"2023-05-08 18:00",86.2568307902768,"Approved","OW413"
"2023-05-08 19:00",86.2528244764811,"Approved","OW413"
"2023-05-08 20:00",86.2438181626855,"Approved","OW413"
"2023-05-08 21:00",86.2388118488898,"Approved","OW413"
"2023-05-08 22:00",86.2358055350942,"Approved","OW413"
"2023-05-08 23:00",86.2417992212985,"Approved","OW413"
"2023-05-09 00:00",86.2417929075029,"Approved","OW413"
"2023-05-09 01:00",86.2417865937072,"Approved","OW413"
"2023-05-09 02:00",86.2417802799116,"Approved","OW413"
"2023-05-09 03:00",86.243773966116,"Approved","OW413"
"2023-05-09 04:00",86.2497676523203,"Approved","OW413"
"2023-05-09 05:00",86.2557613385247,"Approved","OW413"
"2023-05-09 06:00",86.255755024729,"Approved","OW413"
"2023-05-09 07:00",86.2567487109334,"Approved","OW413"
"2023-05-09 08:00",86.2567423971377,"Approved","OW413"
"2023-05-09 09:00",86.2587360833421,"Approved","OW413"
"2023-05-09 10:00",86.2617297695465,"Approved","OW413"
"2023-05-09 11:00",86.2627234557508,"Approved","OW413"
"2023-05-09 12:00",86.2657171419552,"Approved","OW413"
"2023-05-09 13:00",86.2687108281595,"Approved","OW413"
"2023-05-09 14:00",86.2687045143639,"Approved","OW413"
"2023-05-09 15:00",86.2696982005682,"Approved","OW413"
"2023-05-09 16:00",86.2646918867726,"Approved","OW413"
"2023-05-09 17:00",86.269685572977,"Approved","OW413"
"2023-05-09 18:00",86.2676792591813,"Approved","OW413"
"2023-05-09 19:00",86.2636729453857,"Approved","OW413"
"2023-05-09 20:00",86.25766663159,"Approved","OW413"
"2023-05-09 21:00",86.2536603177944,"Approved","OW413"
"2023-05-09 22:00",86.2476540039987,"Approved","OW413"
"2023-05-09 23:00",86.2426476902031,"Approved","OW413"
"2023-05-10 00:00",86.2386413764075,"Approved","OW413"
"2023-05-10 01:00",86.2446350626118,"Approved","OW413"
"2023-05-10 02:00",86.2516287488162,"Approved","OW413"
"2023-05-10 03:00",86.2506224350205,"Approved","OW413"
"2023-05-10 04:00",86.2556161212249,"Approved","OW413"
"2023-05-10 05:00",86.2596098074292,"Approved","OW413"
"2023-05-10 06:00",86.2616034936336,"Approved","OW413"
"2023-05-10 07:00",86.262597179838,"Approved","OW413"
"2023-05-10 08:00",86.2635908660423,"Approved","OW413"
"2023-05-10 09:00",86.2615845522467,"Approved","OW413"
"2023-05-10 10:00",86.260578238451,"Approved","OW413"
"2023-05-10 11:00",86.2625719246554,"Approved","OW413"
"2023-05-10 12:00",86.2625656108597,"Approved","OW413"
"2023-05-10 13:00",86.2645592970641,"Approved","OW413"
"2023-05-10 14:00",86.2665529832685,"Approved","OW413"
"2023-05-10 15:00",86.2665466694728,"Approved","OW413"
"2023-05-10 16:00",86.2695403556772,"Approved","OW413"
"2023-05-10 17:00",86.2655340418815,"Approved","OW413"
"2023-05-10 18:00",86.2595277280859,"Approved","OW413"
"2023-05-10 19:00",86.2555214142902,"Approved","OW413"
"2023-05-10 20:00",86.2485151004946,"Approved","OW413"
"2023-05-10 21:00",86.2485087866989,"Approved","OW413"
"2023-05-10 22:00",86.2415024729033,"Approved","OW413"
"2023-05-10 23:00",86.2454961591077,"Approved","OW413"
"2023-05-11 00:00",86.241489845312,"Approved","OW413"
"2023-05-11 01:00",86.2434835315164,"Approved","OW413"
"2023-05-11 02:00",86.2484772177207,"Approved","OW413"
"2023-05-11 03:00",86.2464709039251,"Approved","OW413"
"2023-05-11 04:00",86.2484645901294,"Approved","OW413"
"2023-05-11 05:00",86.2554582763338,"Approved","OW413"
"2023-05-11 06:00",86.2564519625382,"Approved","OW413"
"2023-05-11 07:00",86.2594456487425,"Approved","OW413"
"2023-05-11 08:00",86.2624393349469,"Approved","OW413"
"2023-05-11 09:00",86.2644330211512,"Approved","OW413"
"2023-05-11 10:00",86.2624267073556,"Approved","OW413"
"2023-05-11 11:00",86.2624203935599,"Approved","OW413"
"2023-05-11 12:00",86.2664140797643,"Approved","OW413"
"2023-05-11 13:00",86.2694077659687,"Approved","OW413"
"2023-05-11 14:00",86.273401452173,"Approved","OW413"
"2023-05-11 15:00",86.2743951383774,"Approved","OW413"
"2023-05-11 16:00",86.2793888245817,"Approved","OW413"
"2023-05-11 17:00",86.2763825107861,"Approved","OW413"
"2023-05-11 18:00",86.2723761969904,"Approved","OW413"
"2023-05-11 19:00",86.2633698831948,"Approved","OW413"
"2023-05-11 20:00",86.2563635693991,"Approved","OW413"
"2023-05-11 21:00",86.2473572556035,"Approved","OW413"
"2023-05-11 22:00",86.2403509418078,"Approved","OW413"
"2023-05-11 23:00",86.2373446280122,"Approved","OW413"
"2023-05-12 00:00",86.2363383142166,"Approved","OW413"
"2023-05-12 01:00",86.2383320004209,"Approved","OW413"
"2023-05-12 02:00",86.2433256866253,"Approved","OW413"
"2023-05-12 03:00",86.2533193728296,"Approved","OW413"
"2023-05-12 04:00",86.252313059034,"Approved","OW413"
"2023-05-12 05:00",86.2583067452383,"Approved","OW413"
"2023-05-12 06:00",86.2653004314427,"Approved","OW413"
"2023-05-12 07:00",86.2692941176471,"Approved","OW413"
"2023-05-12 08:00",86.2762878038514,"Approved","OW413"
"2023-05-12 09:00",86.2782814900558,"Approved","OW413"
"2023-05-12 10:00",86.2782751762601,"Approved","OW413"
"2023-05-12 11:00",86.2842688624645,"Approved","OW413"
"2023-05-12 12:00",86.2862625486688,"Approved","OW413"
"2023-05-12 13:00",86.2902562348732,"Approved","OW413"
"2023-05-12 14:00",86.2942499210776,"Approved","OW413"
"2023-05-12 15:00",86.3002436072819,"Approved","OW413"
"2023-05-12 16:00",86.3022372934863,"Approved","OW413"
"2023-05-12 17:00",86.2982309796906,"Approved","OW413"
"2023-05-12 18:00",86.291224665895,"Approved","OW413"
"2023-05-12 19:00",86.2822183520993,"Approved","OW413"
"2023-05-12 20:00",86.2732120383037,"Approved","OW413"
"2023-05-12 21:00",86.267205724508,"Approved","OW413"
"2023-05-12 22:00",86.2571994107124,"Approved","OW413"
"2023-05-12 23:00",86.2491930969168,"Approved","OW413"
"2023-05-13 00:00",86.2441867831211,"Approved","OW413"
"2023-05-13 01:00",86.2451804693255,"Approved","OW413"
"2023-05-13 02:00",86.2461741555298,"Approved","OW413"
"2023-05-13 03:00",86.2551678417342,"Approved","OW413"
"2023-05-13 04:00",86.2571615279385,"Approved","OW413"
"2023-05-13 05:00",86.2611552141429,"Approved","OW413"
"2023-05-13 06:00",86.2621489003473,"Approved","OW413"
"2023-05-13 07:00",86.2661425865516,"Approved","OW413"
"2023-05-13 08:00",86.271136272756,"Approved","OW413"
"2023-05-13 09:00",86.2751299589603,"Approved","OW413"
"2023-05-13 10:00",86.2761236451647,"Approved","OW413"
"2023-05-13 11:00",86.279117331369,"Approved","OW413"
"2023-05-13 12:00",86.2791110175734,"Approved","OW413"
"2023-05-13 13:00",86.2821047037777,"Approved","OW413"
"2023-05-13 14:00",86.2850983899821,"Approved","OW413"
"2023-05-13 15:00",86.2930920761865,"Approved","OW413"
"2023-05-13 16:00",86.2900857623908,"Approved","OW413"
"2023-05-13 17:00",86.2820794485952,"Approved","OW413"
"2023-05-13 18:00",86.2740731347995,"Approved","OW413"
"2023-05-13 19:00",86.2640668210039,"Approved","OW413"
"2023-05-13 20:00",86.2550605072082,"Approved","OW413"
"2023-05-13 21:00",86.2440541934126,"Approved","OW413"
"2023-05-13 22:00",86.234047879617,"Approved","OW413"
"2023-05-13 23:00",86.2250415658213,"Approved","OW413"
"2023-05-14 00:00",86.2190352520257,"Approved","OW413"
"2023-05-14 01:00",86.21602893823,"Approved","OW413"
"2023-05-14 02:00",86.2180226244344,"Approved","OW413"
"2023-05-14 03:00",86.2280163106387,"Approved","OW413"
"2023-05-14 04:00",86.2370099968431,"Approved","OW413"
"2023-05-14 05:00",86.2390036830475,"Approved","OW413"
"2023-05-14 06:00",86.2429973692518,"Approved","OW413"
"2023-05-14 07:00",86.2419910554562,"Approved","OW413"
"2023-05-14 08:00",86.2449847416605,"Approved","OW413"
"2023-05-14 09:00",86.2449784278649,"Approved","OW413"
"2023-05-14 10:00",86.2459721140692,"Approved","OW413"
"2023-05-14 11:00",86.2479658002736,"Approved","OW413"
"2023-05-14 12:00",86.245959486478,"Approved","OW413"
"2023-05-14 13:00",86.2459531726823,"Approved","OW413"
"2023-05-14 14:00",86.2479468588867,"Approved","OW413"
"2023-05-14 15:00",86.256940545091,"Approved","OW413"
"2023-05-14 16:00",86.2489342312954,"Approved","OW413"
"2023-05-14 17:00",86.2389279174997,"Approved","OW413"
"2023-05-14 18:00",86.2299216037041,"Approved","OW413"
"2023-05-14 19:00",86.2189152899085,"Approved","OW413"
"2023-05-14 20:00",86.2109089761128,"Approved","OW413"
"2023-05-14 21:00",86.2059026623172,"Approved","OW413"
"2023-05-14 22:00",86.1978963485215,"Approved","OW413"
"2023-05-14 23:00",86.1908900347259,"Approved","OW413"
"2023-05-15 00:00",86.1868837209302,"Approved","OW413"
"2023-05-15 01:00",86.1878774071346,"Approved","OW413"
"2023-05-15 02:00",86.187871093339,"Approved","OW413"
"2023-05-15 03:00",86.1988647795433,"Approved","OW413"
"2023-05-15 04:00",86.2088584657477,"Approved","OW413"
"2023-05-15 05:00",86.211852151952,"Approved","OW413"
"2023-05-15 06:00",86.2158458381564,"Approved","OW413"
"2023-05-15 07:00",86.2148395243607,"Approved","OW413"
"2023-05-15 08:00",86.2158332105651,"Approved","OW413"
"2023-05-15 09:00",86.2168268967694,"Approved","OW413"
"2023-05-15 10:00",86.2198205829738,"Approved","OW413"
"2023-05-15 11:00",86.2218142691782,"Approved","OW413"
"2023-05-15 12:00",86.2218079553825,"Approved","OW413"
"2023-05-15 13:00",86.2238016415869,"Approved","OW413"
"2023-05-15 14:00",86.2307953277912,"Approved","OW413"
"2023-05-15 15:00",86.2367890139956,"Approved","OW413"
"2023-05-15 16:00",86.2307827001999,"Approved","OW413"
"2023-05-15 17:00",86.2217763864043,"Approved","OW413"
"2023-05-15 18:00",86.2137700726087,"Approved","OW413"
"2023-05-15 19:00",86.206763758813,"Approved","OW413"
"2023-05-15 20:00",86.1987574450174,"Approved","OW413"
"2023-05-15 21:00",86.1937511312217,"Approved","OW413"
"2023-05-15 22:00",86.1877448174261,"Approved","OW413"
"2023-05-15 23:00",86.1787385036304,"Approved","OW413"
"2023-05-16 00:00",86.1747321898348,"Approved","OW413"
"2023-05-16 01:00",86.1787258760392,"Approved","OW413"
"2023-05-16 02:00",86.1877195622435,"Approved","OW413"
"2023-05-16 03:00",86.2037132484479,"Approved","OW413"
"2023-05-16 04:00",86.2177069346522,"Approved","OW413"
"2023-05-16 05:00",86.2227006208566,"Approved","OW413"
"2023-05-16 06:00",86.2256943070609,"Approved","OW413"
"2023-05-16 07:00",86.2266879932653,"Approved","OW413"
"2023-05-16 08:00",86.2266816794696,"Approved","OW413"
"2023-05-16 09:00",86.227675365674,"Approved","OW413"
"2023-05-16 10:00",86.2286690518784,"Approved","OW413"
"2023-05-16 11:00",86.2296627380827,"Approved","OW413"
"2023-05-16 12:00",86.2296564242871,"Approved","OW413"
"2023-05-16 13:00",86.2326501104914,"Approved","OW413"
"2023-05-16 14:00",86.2436437966958,"Approved","OW413"
"2023-05-16 15:00",86.2506374829001,"Approved","OW413"
"2023-05-16 16:00",86.2456311691045,"Approved","OW413"
"2023-05-16 17:00",86.2406248553089,"Approved","OW413"
"2023-05-16 18:00",86.2356185415132,"Approved","OW413"
"2023-05-16 19:00",86.2286122277176,"Approved","OW413"
"2023-05-16 20:00",86.2186059139219,"Approved","OW413"
"2023-05-16 21:00",86.2095996001263,"Approved","OW413"
"2023-05-16 22:00",86.2135932863306,"Approved","OW413"
"2023-05-16 23:00",86.213586972535,"Approved","OW413"
"2023-05-17 00:00",86.2195806587393,"Approved","OW413"
"2023-05-17 01:00",86.2185743449437,"Approved","OW413"
"2023-05-17 02:00",86.2175680311481,"Approved","OW413"
"2023-05-17 03:00",86.2275617173524,"Approved","OW413"
"2023-05-17 04:00",86.2325554035568,"Approved","OW413"
"2023-05-17 05:00",86.2325490897611,"Approved","OW413"
"2023-05-17 06:00",86.2315427759655,"Approved","OW413"
"2023-05-17 07:00",86.2335364621698,"Approved","OW413"
"2023-05-17 08:00",86.2325301483742,"Approved","OW413"
"2023-05-17 09:00",86.2315238345786,"Approved","OW413"
"2023-05-17 10:00",86.2295175207829,"Approved","OW413"
"2023-05-17 11:00",86.2285112069873,"Approved","OW413"
"2023-05-17 12:00",86.2295048931916,"Approved","OW413"
"2023-05-17 13:00",86.231498579396,"Approved","OW413"
"2023-05-17 14:00",86.2354922656003,"Approved","OW413"
"2023-05-17 15:00",86.2384859518047,"Approved","OW413"
"2023-05-17 16:00",86.239479638009,"Approved","OW413"
"2023-05-17 17:00",86.2314733242134,"Approved","OW413"
"2023-05-17 18:00",86.2244670104178,"Approved","OW413"
"2023-05-17 19:00",86.2164606966221,"Approved","OW413"
"2023-05-17 20:00",86.2084543828265,"Approved","OW413"
"2023-05-17 21:00",86.2004480690308,"Approved","OW413"
"2023-05-17 22:00",86.1944417552352,"Approved","OW413"
"2023-05-17 23:00",86.1874354414395,"Approved","OW413"
"2023-05-18 00:00",86.1874291276439,"Approved","OW413"
"2023-05-18 01:00",86.1884228138482,"Approved","OW413"
"2023-05-18 02:00",86.1914165000526,"Approved","OW413"
"2023-05-18 03:00",86.201410186257,"Approved","OW413"
"2023-05-18 04:00",86.2034038724613,"Approved","OW413"
"2023-05-18 05:00",86.2053975586657,"Approved","OW413"
"2023-05-18 06:00",86.20939124487,"Approved","OW413"
"2023-05-18 07:00",86.2133849310744,"Approved","OW413"
"2023-05-18 08:00",86.2173786172788,"Approved","OW413"
"2023-05-18 09:00",86.2183723034831,"Approved","OW413"
"2023-05-18 10:00",86.2193659896875,"Approved","OW413"
"2023-05-18 11:00",86.2233596758918,"Approved","OW413"
"2023-05-18 12:00",86.2263533620962,"Approved","OW413"
"2023-05-18 13:00",86.2293470483005,"Approved","OW413"
"2023-05-18 14:00",86.2333407345049,"Approved","OW413"
"2023-05-18 15:00",86.2413344207093,"Approved","OW413"
"2023-05-18 16:00",86.2463281069136,"Approved","OW413"
"2023-05-18 17:00",86.241321793118,"Approved","OW413"
"2023-05-18 18:00",86.2333154793223,"Approved","OW413"
"2023-05-18 19:00",86.2273091655267,"Approved","OW413"
"2023-05-18 20:00",86.219302851731,"Approved","OW413"
"2023-05-18 21:00",86.2112965379354,"Approved","OW413"
"2023-05-18 22:00",86.2052902241397,"Approved","OW413"
"2023-05-18 23:00",86.2122839103441,"Approved","OW413"
"2023-05-19 00:00",86.2162775965485,"Approved","OW413"
"2023-05-19 01:00",86.2292712827528,"Approved","OW413"
"2023-05-19 02:00",86.2332649689572,"Approved","OW413"
"2023-05-19 03:00",86.2432586551615,"Approved","OW413"
"2023-05-19 04:00",86.2472523413659,"Approved","OW413"
"2023-05-19 05:00",86.2472460275702,"Approved","OW413"
"2023-05-19 06:00",86.2492397137746,"Approved","OW413"
"2023-05-19 07:00",86.249233399979,"Approved","OW413"
"2023-05-19 08:00",86.2522270861833,"Approved","OW413"
"2023-05-19 09:00",86.2492207723877,"Approved","OW413"
"2023-05-19 10:00",86.247214458592,"Approved","OW413"
"2023-05-19 11:00",86.2472081447964,"Approved","OW413"
"2023-05-19 12:00",86.2482018310007,"Approved","OW413"
"2023-05-19 13:00",86.2501955172051,"Approved","OW413"
"2023-05-19 14:00",86.2541892034095,"Approved","OW413"
"2023-05-19 15:00",86.2611828896138,"Approved","OW413"
"2023-05-19 16:00",86.2551765758182,"Approved","OW413"
"2023-05-19 17:00",86.2481702620225,"Approved","OW413"
"2023-05-19 18:00",86.2401639482269,"Approved","OW413"
"2023-05-19 19:00",86.2321576344312,"Approved","OW413"
"2023-05-19 20:00",86.2211513206356,"Approved","OW413"
"2023-05-19 21:00",86.21414500684,"Approved","OW413"
"2023-05-19 22:00",86.2081386930443,"Approved","OW413"
"2023-05-19 23:00",86.2001323792487,"Approved","OW413"
"2023-05-20 00:00",86.197126065453,"Approved","OW413"
"2023-05-20 01:00",86.1991197516574,"Approved","OW413"
"2023-05-20 02:00",86.1981134378617,"Approved","OW413"
"2023-05-20 03:00",86.2091071240661,"Approved","OW413"
"2023-05-20 04:00",86.2211008102704,"Approved","OW413"
"2023-05-20 05:00",86.2270944964748,"Approved","OW413"
"2023-05-20 06:00",86.2300881826792,"Approved","OW413"
"2023-05-20 07:00",86.2300818688835,"Approved","OW413"
"2023-05-20 08:00",86.2350755550879,"Approved","OW413"
"2023-05-20 09:00",86.2330692412922,"Approved","OW413"
"2023-05-20 10:00",86.2320629274966,"Approved","OW413"
"2023-05-20 11:00",86.2340566137009,"Approved","OW413"
"2023-05-20 12:00",86.2340502999053,"Approved","OW413"
"2023-05-20 13:00",86.2350439861097,"Approved","OW413"
"2023-05-20 14:00",86.234037672314,"Approved","OW413"
"2023-05-20 15:00",86.2400313585184,"Approved","OW413"
"2023-05-20 16:00",86.2430250447227,"Approved","OW413"
"2023-05-20 17:00",86.2420187309271,"Approved","OW413"
"2023-05-20 18:00",86.2390124171314,"Approved","OW413"
"2023-05-20 19:00",86.2230061033358,"Approved","OW413"
"2023-05-20 20:00",86.2119997895401,"Approved","OW413"
"2023-05-20 21:00",86.2019934757445,"Approved","OW413"
"2023-05-20 22:00",86.2039871619489,"Approved","OW413"
"2023-05-20 23:00",86.2019808481532,"Approved","OW413"
"2023-05-21 00:00",86.1979745343576,"Approved","OW413"
"2023-05-21 01:00",86.2089682205619,"Approved","OW413"
"2023-05-21 02:00",86.2079619067663,"Approved","OW413"
"2023-05-21 03:00",86.2189555929706,"Approved","OW413"
"2023-05-21 04:00",86.210949279175,"Approved","OW413"
"2023-05-21 05:00",86.2189429653794,"Approved","OW413"
"2023-05-21 06:00",86.2189366515837,"Approved","OW413"
"2023-05-21 07:00",86.2189303377881,"Approved","OW413"
"2023-05-21 08:00",86.2179240239924,"Approved","OW413"
"2023-05-21 09:00",86.2119177101968,"Approved","OW413"
"2023-05-21 10:00",86.2099113964011,"Approved","OW413"
"2023-05-21 11:00",86.2099050826055,"Approved","OW413"
"2023-05-21 12:00",86.2098987688099,"Approved","OW413"
"2023-05-21 13:00",86.2168924550142,"Approved","OW413"
"2023-05-21 14:00",86.2318861412186,"Approved","OW413"
"2023-05-21 15:00",86.2228798274229,"Approved","OW413"
"2023-05-21 16:00",86.2138735136273,"Approved","OW413"
"2023-05-21 17:00",86.2168671998316,"Approved","OW413"
"2023-05-21 18:00",86.212860886036,"Approved","OW413"
"2023-05-21 19:00",86.2078545722404,"Approved","OW413"
"2023-05-21 20:00",86.2038482584447,"Approved","OW413"
"2023-05-21 21:00",86.2028419446491,"Approved","OW413"
"2023-05-21 22:00",86.1998356308534,"Approved","OW413"
"2023-05-21 23:00",86.1908293170578,"Approved","OW413"
"2023-05-22 00:00",86.1838230032621,"Approved","OW413"
"2023-05-22 01:00",86.1838166894665,"Approved","OW413"
"2023-05-22 02:00",86.1858103756708,"Approved","OW413"
"2023-05-22 03:00",86.1848040618752,"Approved","OW413"
"2023-05-22 04:00",86.1817977480795,"Approved","OW413"
"2023-05-22 05:00",86.1857914342839,"Approved","OW413"
"2023-05-22 06:00",86.1897851204883,"Approved","OW413"
"2023-05-22 07:00",86.1937788066926,"Approved","OW413"
"2023-05-22 08:00",86.197772492897,"Approved","OW413"
"2023-05-22 09:00",86.2027661791013,"Approved","OW413"
"2023-05-22 10:00",86.2057598653057,"Approved","OW413"
"2023-05-22 11:00",86.20675355151,"Approved","OW413"
"2023-05-22 12:00",86.2037472377144,"Approved","OW413"
"2023-05-22 13:00",86.2037409239188,"Approved","OW413"
"2023-05-22 14:00",86.2037346101231,"Approved","OW413"
"2023-05-22 15:00",86.2047282963275,"Approved","OW413"
"2023-05-22 16:00",86.2047219825318,"Approved","OW413"
"2023-05-22 17:00",86.2017156687362,"Approved","OW413"
"2023-05-22 18:00",86.2017093549405,"Approved","OW413"
"2023-05-22 19:00",86.2047030411449,"Approved","OW413"
"2023-05-22 20:00",86.2056967273492,"Approved","OW413"
"2023-05-22 21:00",86.2056904135536,"Approved","OW413"
"2023-05-22 22:00",86.206684099758,"Approved","OW413"
"2023-05-22 23:00",86.2066777859623,"Approved","OW413"
"2023-05-23 00:00",86.2066714721667,"Approved","OW413"
"2023-05-23 01:00",86.206665158371,"Approved","OW413"
"2023-05-23 02:00",86.2036588445754,"Approved","OW413"
"2023-05-23 03:00",86.2026525307797,"Approved","OW413"
"2023-05-23 04:00",86.2056462169841,"Approved","OW413"
"2023-05-23 05:00",86.2086399031885,"Approved","OW413"
"2023-05-23 06:00",86.2086335893928,"Approved","OW413"
"2023-05-23 07:00",86.2086272755972,"Approved","OW413"
"2023-05-23 08:00",86.2076209618015,"Approved","OW413"
"2023-05-23 09:00",86.2056146480059,"Approved","OW413"
"2023-05-23 10:00",86.2046083342102,"Approved","OW413"
"2023-05-23 11:00",86.2046020204146,"Approved","OW413"
"2023-05-23 12:00",86.204595706619,"Approved","OW413"
"2023-05-23 13:00",86.2045893928233,"Approved","OW413"
"2023-05-23 14:00",86.2065830790277,"Approved","OW413"
"2023-05-23 15:00",86.204576765232,"Approved","OW413"
"2023-05-23 16:00",86.2055704514364,"Approved","OW413"
"2023-05-23 17:00",86.2035641376407,"Approved","OW413"
"2023-05-23 18:00",86.2035578238451,"Approved","OW413"
"2023-05-23 19:00",86.2015515100495,"Approved","OW413"